This is the latest recevied weather packets stored in our database for station/object KG4ZVW. If no packets are shown the sender has not sent any weather packets the latest 10 day(s).
| Time | Temp. | Humidity | Pressure | Rain* | Wind** | Luminosity | Snow |
|---|---|---|---|---|---|---|---|
| 1778158114 | 25° C | 77% | 1015.7 hPa | 0 mm | - | 309 W/m² | - |
| 1778157811 | 25° C | 78% | 1015.7 hPa | 0 mm | - | 267 W/m² | - |
| 1778157506 | 24.44° C | 78% | 1015.9 hPa | 0 mm | - | 283 W/m² | - |
| 1778157205 | 24.44° C | 79% | 1015.9 hPa | 0 mm | - | 278 W/m² | - |
| 1778156900 | 24.44° C | 80% | 1015.9 hPa | 0 mm | - | 248 W/m² | - |
| 1778156615 | 23.89° C | 80% | 1015.9 hPa | 0 mm | - | 197 W/m² | - |
| 1778156309 | 23.89° C | 81% | 1015.9 hPa | 0 mm | - | 186 W/m² | - |
| 1778156005 | 23.33° C | 82% | 1015.9 hPa | 0 mm | - | 195 W/m² | - |
| 1778155700 | 23.33° C | 82% | 1015.7 hPa | 0 mm | - | 169 W/m² | - |
| 1778155414 | 23.33° C | 83% | 1015.7 hPa | 0 mm | - | 185 W/m² | - |
| 1778155110 | 22.78° C | 83% | 1015.7 hPa | 0 mm | - | 142 W/m² | - |
| 1778154805 | 22.78° C | 84% | 1015.5 hPa | 0 mm | - | 158 W/m² | - |
| 1778154500 | 22.78° C | 84% | 1015.5 hPa | 0 mm | - | 144 W/m² | - |
| 1778154215 | 22.78° C | 84% | 1015.5 hPa | 0 mm | - | 132 W/m² | - |
| 1778153910 | 22.22° C | 85% | 1015.5 hPa | 0 mm | - | 127 W/m² | - |
| 1778153605 | 22.22° C | 85% | 1015.5 hPa | 0 mm | - | 111 W/m² | - |
| 1778153300 | 22.22° C | 85% | 1015.5 hPa | 0 mm | - | 88 W/m² | - |
| 1778152999 | 22.22° C | 85% | 1015.5 hPa | 0 mm | - | 86 W/m² | - |
| 1778152717 | 22.22° C | 85% | 1015.5 hPa | 0 mm | - | 69 W/m² | - |
| 1778152411 | 22.22° C | 84% | 1015.5 hPa | 0 mm | - | 60 W/m² | - |
| 1778152106 | 22.22° C | 84% | 1015.1 hPa | 0 mm | - | 47 W/m² | - |
| 1778151799 | 22.22° C | 84% | 1015.1 hPa | 0 mm | - | 39 W/m² | - |
| 1778151518 | 21.67° C | 84% | 1015.1 hPa | 0 mm | - | 26 W/m² | - |
| 1778151213 | 21.67° C | 84% | 1015 hPa | 0 mm | - | 19 W/m² | - |
| 1778150907 | 22.22° C | 83% | 1015 hPa | 0 mm | - | 14 W/m² | - |
* Rain latest hour (hover to see other rain measurements)
** Current wind speed in m/s (hover to see current wind gust speed)